This demonstration page uses our WeatherBlox Daily Observations layout. Learn more.

Left ArrowRight Arrow

34.16533, -84.80231

Hourly Observations for December 5, 2017

Temp ( °F °C ) Dew Point ( °F °C ) Humidity (%) Winds ( mph kmh ) Pressure ( in mb ) Visibility ( mi km ) Precip ( " mm )
12:53 am 00:53 Clear 56 13.3 51 10.6 84 84 Calm 30.19 1022 10 16 0.00 0.00
1:53 am 01:53 Cloudy 56 13.3 51 10.6 84 84 E 3 6 30.18 1022 10 16 0.00 0.00
2:53 am 02:53 Cloudy 56 13.3 52 11.1 87 87 ENE 3 6 30.18 1022 10 16 0.00 0.00
3:53 am 03:53 Cloudy 57 13.9 53 11.7 87 87 E 3 6 30.17 1022 10 16 0.00 0.00
4:53 am 04:53 Mostly Cloudy 57 13.9 54 12.2 90 90 ESE 5 7 30.16 1021 10 16 0.00 0.00
5:53 am 05:53 Cloudy 58 14.4 55 12.8 90 90 ESE 5 7 30.15 1021 10 16 0.00 0.00
6:53 am 06:53 Cloudy 59 15 56 13.3 90 90 VRB 7 11 30.15 1021 10 16 0.00 0.00
7:53 am 07:53 Cloudy 59 15 57 13.9 93 93 VRB 7 11 30.14 1021 10 16 0.00 0.00
8:53 am 08:53 Cloudy 60 15.6 57 13.9 90 90 VRB 6 9 30.15 1021 10 16 0.00 0.00
9:53 am 09:53 Cloudy 62 16.7 58 14.4 86 86 S 9 15 30.15 1021 10 16 0.00 0.00
10:53 am 10:53 Mostly Cloudy 63 17.2 58 14.4 84 84 S 8 13 30.13 1020 10 16 0.00 0.00
11:53 am 11:53 Mostly Cloudy 64 17.8 59 15 84 84 VRB 5 7 30.09 1019 10 16 0.00 0.03
12:53 pm 12:53 Cloudy 65 18.3 58 14.4 78 78 VRB 6 9 30.07 1018 10 16 0.00 0.00
1:53 pm 13:53 Partly Cloudy 66 18.9 59 15 78 78 S 6 9 30.03 1017 10 16 0.00 0.00
2:53 pm 14:53 Mostly Cloudy 68 20 60 15.6 76 76 S 8 13 30.01 1016 10 16 0.00 0.00
3:01 pm 15:01 Cloudy 68 20 60 15.6 76 76 VRB 5 7 30.03 1017 10 16 0.00 0.00
3:29 pm 15:29 Cloudy with Heavy Rain 56 13.3 55 12.8 97 97 N 9 15 30.09 1019 2 3 0.09 2.29
3:35 pm 15:35 Cloudy with Light Rain 56 13.3 55 12.8 97 97 N 10 17 30.09 1019 2 3 0.10 2.54
3:43 pm 15:43 Cloudy with Light Rain 56 13.3 56 13.3 100 100 VRB 6 9 30.09 1019 7 11 0.10 2.54
3:53 pm 15:53 Cloudy with Rain 55 12.8 55 12.8 100 100 Calm 30.07 1018 3 4 0.15 3.81
4:12 pm 16:12 Cloudy with Light Rain 56 13.3 55 12.8 97 97 VRB 3 6 30.09 1019 5 8 0.04 1.02
4:44 pm 16:44 Cloudy with Light Rain 55 12.8 55 12.8 100 100 Calm 30.12 1020 6 10 0.09 2.29
4:53 pm 16:53 Cloudy with Light Rain 55 12.8 55 12.8 100 100 Calm 30.09 1019 7 11 0.10 2.54
5:09 pm 17:09 Cloudy with Light Rain 55 12.8 55 12.8 100 100 Calm 30.12 1020 8 13 0.00 0.03
5:32 pm 17:32 Cloudy with Light Rain 55 12.8 55 12.8 100 100 Calm 30.12 1020 6 10 0.02 0.51
5:53 pm 17:53 Cloudy with Rain 55 12.8 55 12.8 100 100 Calm 30.10 1019 4 6 0.10 2.54
6:53 pm 18:53 Cloudy with Light Rain 54 12.2 54 12.2 100 100 Calm 30.09 1019 10 16 0.06 1.52
7:53 pm 19:53 Mostly Cloudy 54 12.2 54 12.2 100 100 Calm 30.09 1019 9 14 0.01 0.25
8:53 pm 20:53 Cloudy with Light Rain 54 12.2 54 12.2 100 100 Calm 30.09 1019 6 10 0.02 0.51
9:10 pm 21:10 Cloudy with Mist and Fog 54 12.2 54 12.2 100 100 Calm 30.12 1020 6 10 0.00 0.03
9:53 pm 21:53 Cloudy with Mist and Fog 54 12.2 54 12.2 100 100 Calm 30.09 1019 6 10 0.00 0.03
10:15 pm 22:15 Cloudy 54 12.2 54 12.2 100 100 Calm 30.12 1020 7 11 0.01 0.25
10:30 pm 22:30 Cloudy with Mist and Fog 54 12.2 54 12.2 100 100 Calm 30.12 1020 6 10 0.01 0.25
10:41 pm 22:41 Cloudy with Mist and Fog 54 12.2 54 12.2 100 100 Calm 30.15 1021 5 8 0.01 0.25
10:50 pm 22:50 Cloudy with Mist and Fog 54 12 54 12 100 100 Calm 30.15 1021 5 8 0.01 0.25
10:53 pm 22:53 Cloudy 54 12.2 54 12.2 100 100 VRB 3 6 30.11 1020 7 11 0.01 0.25
11:08 pm 23:08 Cloudy 54 12.2 54 12.2 100 100 VRB 3 6 30.15 1021 9 14 0.00 0.00

Powered by AerisWeather